THA225 VHHH-ZJHK

Flight info

Callsign THA225
Flight time 0h 58m
Altitude 40000
Route PECAN V10 SIKOU A202 ISBIG
Aircraft B772/H-SDE2E3FGHIJ5LORVWXY/LB1D1

Departure

Time 2026-04-26 03:52
Airport Hong Kong International Airport (VHHH)

Arrival

Time 2026-04-26 04:50
Airport Haikou Meilan International Airport (ZJHK)
Time Latitude Longitude Altitude Speed Heading
2026-04-26 03:19 22.30874 113.91734 37 ft 0 kts 70°
2026-04-26 03:36 22.30869 113.91715 35 ft 4 kts 77°
2026-04-26 03:36 22.30863 113.91691 34 ft 4 kts 71°
2026-04-26 03:36 22.30854 113.91669 32 ft 4 kts 55°
2026-04-26 03:36 22.30836 113.91648 33 ft 4 kts 27°
2026-04-26 03:37 22.30814 113.91643 35 ft 2 kts 341°
2026-04-26 03:37 22.30812 113.91644 35 ft 0 kts 341°
2026-04-26 03:44 22.30825 113.91639 37 ft 3 kts 342°
2026-04-26 03:44 22.30859 113.91629 37 ft 15 kts 354°
2026-04-26 03:44 22.30981 113.91600 37 ft 19 kts 333°
2026-04-26 03:44 22.31099 113.91538 37 ft 19 kts 336°
2026-04-26 03:45 22.31222 113.91490 37 ft 19 kts 341°
2026-04-26 03:45 22.31344 113.91446 37 ft 19 kts 341°
2026-04-26 03:45 22.31406 113.91385 37 ft 19 kts 282°
2026-04-26 03:45 22.31374 113.91249 37 ft 19 kts 251°
2026-04-26 03:46 22.31333 113.91115 37 ft 19 kts 251°
2026-04-26 03:46 22.31290 113.90981 37 ft 19 kts 250°
2026-04-26 03:46 22.31246 113.90847 37 ft 19 kts 250°
2026-04-26 03:47 22.31159 113.90580 36 ft 19 kts 251°
2026-04-26 03:47 22.31106 113.90417 37 ft 25 kts 251°
2026-04-26 03:47 22.31050 113.90241 37 ft 25 kts 251°
2026-04-26 03:47 22.30995 113.90066 37 ft 25 kts 251°
2026-04-26 03:48 22.30938 113.89896 37 ft 11 kts 250°
2026-04-26 03:48 22.30948 113.89820 37 ft 11 kts 314°
2026-04-26 03:48 22.30957 113.89812 37 ft 0 kts 326°
2026-04-26 03:49 22.30961 113.89810 37 ft 4 kts 327°
2026-04-26 03:49 22.31016 113.89783 34 ft 13 kts 338°
2026-04-26 03:50 22.31100 113.89828 34 ft 17 kts 67°
2026-04-26 03:50 22.31117 113.89879 34 ft 0 kts 71°
2026-04-26 03:51 22.31139 113.89949 35 ft 41 kts 71°
2026-04-26 03:51 22.31342 113.90556 36 ft 128 kts 68°
2026-04-26 03:52 22.31724 113.91687 273 ft 178 kts 69°
2026-04-26 03:52 22.32084 113.92905 1524 ft 157 kts 75°
2026-04-26 03:52 22.32307 113.93962 2796 ft 132 kts 79°
2026-04-26 03:52 22.32591 113.94969 3093 ft 158 kts 65°
2026-04-26 03:53 22.33053 113.96155 3401 ft 187 kts 68°
2026-04-26 03:53 22.33546 113.97579 3676 ft 218 kts 76°
2026-04-26 03:53 22.33735 113.98582 3854 ft 238 kts 80°
2026-04-26 03:54 22.33923 113.99825 4077 ft 261 kts 81°
2026-04-26 03:54 22.34217 114.01806 4925 ft 271 kts 81°
2026-04-26 03:54 22.34432 114.03842 5818 ft 277 kts 93°
2026-04-26 03:54 22.33924 114.05850 6741 ft 281 kts 121°
2026-04-26 03:55 22.32660 114.07451 7716 ft 283 kts 143°
2026-04-26 03:55 22.30922 114.08482 8575 ft 290 kts 163°
2026-04-26 03:55 22.28924 114.08803 9481 ft 293 kts 183°
2026-04-26 03:55 22.26873 114.08693 10237 ft 301 kts 183°
2026-04-26 03:56 22.24688 114.08659 10607 ft 329 kts 181°
2026-04-26 03:56 22.22297 114.08653 11014 ft 353 kts 181°
2026-04-26 03:56 22.19812 114.08638 11842 ft 359 kts 180°
2026-04-26 03:56 22.17332 114.09226 12387 ft 375 kts 154°
2026-04-26 03:57 22.15236 114.10897 13541 ft 377 kts 134°
2026-04-26 03:57 22.13750 114.13220 14485 ft 378 kts 117°
2026-04-26 03:57 22.12584 114.15790 15347 ft 384 kts 116°
2026-04-26 03:57 22.11408 114.18389 16351 ft 389 kts 116°
2026-04-26 03:58 22.10191 114.21009 17355 ft 393 kts 117°
2026-04-26 03:58 22.08943 114.23644 18372 ft 397 kts 117°
2026-04-26 03:58 22.07542 114.26209 19020 ft 403 kts 129°
2026-04-26 03:58 22.05434 114.28208 19617 ft 406 kts 146°
2026-04-26 03:59 22.03047 114.29931 20231 ft 418 kts 146°
2026-04-26 03:59 22.00627 114.31713 20901 ft 420 kts 150°
2026-04-26 03:59 21.97889 114.32852 21548 ft 427 kts 172°
2026-04-26 03:59 21.94931 114.32897 22374 ft 428 kts 191°
2026-04-26 04:00 21.92077 114.32016 23285 ft 427 kts 206°
2026-04-26 04:00 21.89573 114.30350 24025 ft 423 kts 221°
2026-04-26 04:00 21.87263 114.28347 24584 ft 430 kts 222°
2026-04-26 04:00 21.84933 114.26288 25233 ft 436 kts 222°
2026-04-26 04:01 21.82580 114.24218 26005 ft 438 kts 221°
2026-04-26 04:01 21.80204 114.22156 26718 ft 441 kts 221°
2026-04-26 04:01 21.77793 114.20086 27362 ft 446 kts 221°
2026-04-26 04:01 21.75344 114.17999 27967 ft 451 kts 220°
2026-04-26 04:02 21.72867 114.15897 28542 ft 455 kts 220°
2026-04-26 04:02 21.70372 114.13779 29137 ft 460 kts 220°
2026-04-26 04:02 21.67848 114.11638 29685 ft 464 kts 220°
2026-04-26 04:02 21.65278 114.09532 30161 ft 467 kts 216°
2026-04-26 04:03 21.62326 114.08002 30488 ft 478 kts 198°
2026-04-26 04:03 21.59075 114.07222 30836 ft 482 kts 194°
2026-04-26 04:03 21.55774 114.06502 31200 ft 486 kts 195°
2026-04-26 04:03 21.52463 114.05719 31574 ft 488 kts 197°
2026-04-26 04:04 21.49157 114.04877 31965 ft 490 kts 198°
2026-04-26 04:04 21.45834 114.04008 32330 ft 492 kts 198°
2026-04-26 04:04 21.42614 114.02831 32637 ft 487 kts 211°
2026-04-26 04:04 21.39804 114.00946 32887 ft 482 kts 219°
2026-04-26 04:05 21.37052 113.98874 33189 ft 484 kts 219°
2026-04-26 04:05 21.34257 113.96780 33620 ft 483 kts 219°
2026-04-26 04:05 21.31490 113.94754 34118 ft 481 kts 219°
2026-04-26 04:05 21.28715 113.92766 34555 ft 478 kts 219°
2026-04-26 04:06 21.25943 113.90807 35012 ft 476 kts 219°
2026-04-26 04:06 21.23182 113.88865 35473 ft 474 kts 218°
2026-04-26 04:06 21.20432 113.86933 35938 ft 471 kts 219°
2026-04-26 04:06 21.17697 113.85008 36394 ft 469 kts 219°
2026-04-26 04:07 21.14972 113.83089 36854 ft 467 kts 219°
2026-04-26 04:07 21.12296 113.81148 37256 ft 461 kts 223°
2026-04-26 04:07 21.09995 113.78801 37559 ft 454 kts 234°
2026-04-26 04:07 21.08159 113.76095 37961 ft 447 kts 242°
2026-04-26 04:08 21.06728 113.73169 38403 ft 439 kts 252°
2026-04-26 04:08 21.05714 113.70104 38748 ft 437 kts 254°
2026-04-26 04:08 21.04760 113.67063 39032 ft 436 kts 254°
2026-04-26 04:08 21.03802 113.63995 39372 ft 433 kts 254°
2026-04-26 04:09 21.02832 113.60912 39811 ft 430 kts 254°
2026-04-26 04:09 21.01882 113.57925 40041 ft 430 kts 254°
2026-04-26 04:09 21.00907 113.54880 40023 ft 434 kts 254°
2026-04-26 04:10 20.98943 113.48808 40011 ft 429 kts 254°
2026-04-26 04:10 20.96983 113.42788 40018 ft 428 kts 254°
2026-04-26 04:11 20.95024 113.36774 40025 ft 428 kts 254°
2026-04-26 04:11 20.93061 113.30757 40020 ft 429 kts 254°
2026-04-26 04:12 20.91091 113.24725 40019 ft 430 kts 254°
2026-04-26 04:12 20.89118 113.18691 40022 ft 430 kts 254°
2026-04-26 04:13 20.87140 113.12652 40015 ft 430 kts 254°
2026-04-26 04:13 20.85159 113.06611 40019 ft 431 kts 254°
2026-04-26 04:14 20.83175 113.00567 40014 ft 431 kts 254°
2026-04-26 04:14 20.81193 112.94540 40006 ft 428 kts 253°
2026-04-26 04:15 20.79219 112.88545 40010 ft 427 kts 253°
2026-04-26 04:15 20.77250 112.82572 40016 ft 426 kts 253°
2026-04-26 04:16 20.75281 112.76607 40020 ft 426 kts 253°
2026-04-26 04:16 20.73307 112.70632 40017 ft 427 kts 253°
2026-04-26 04:17 20.71325 112.64641 40015 ft 428 kts 253°
2026-04-26 04:17 20.69336 112.58640 40014 ft 429 kts 253°
2026-04-26 04:18 20.67344 112.52636 40013 ft 429 kts 253°
2026-04-26 04:18 20.65361 112.46667 40011 ft 429 kts 253°
2026-04-26 04:19 20.63350 112.40622 40010 ft 430 kts 253°
2026-04-26 04:19 20.61347 112.34607 40011 ft 430 kts 253°
2026-04-26 04:20 20.59354 112.28631 40011 ft 430 kts 253°
2026-04-26 04:20 20.57334 112.22580 40010 ft 430 kts 253°
2026-04-26 04:21 20.56088 112.16488 40013 ft 423 kts 272°
2026-04-26 04:21 20.57062 112.10278 40002 ft 425 kts 290°
2026-04-26 04:22 20.59605 112.04631 40013 ft 427 kts 294°
2026-04-26 04:22 20.62257 111.98951 40014 ft 429 kts 294°
2026-04-26 04:23 20.64877 111.93225 40011 ft 430 kts 294°
2026-04-26 04:23 20.67473 111.87481 40011 ft 430 kts 294°
2026-04-26 04:24 20.70060 111.81733 40010 ft 429 kts 294°
2026-04-26 04:24 20.72642 111.75994 40008 ft 428 kts 294°
2026-04-26 04:25 20.75214 111.70269 40009 ft 427 kts 294°
2026-04-26 04:25 20.77779 111.64557 40013 ft 426 kts 294°
2026-04-26 04:26 20.80338 111.58849 40012 ft 426 kts 293°
2026-04-26 04:26 20.82691 111.53077 40008 ft 422 kts 282°
2026-04-26 04:27 20.82986 111.46839 40020 ft 424 kts 265°
2026-04-26 04:27 20.82364 111.43755 40005 ft 427 kts 254°
2026-04-26 04:27 20.81353 111.40760 40012 ft 429 kts 253°
2026-04-26 04:28 20.79259 111.34784 39966 ft 427 kts 253°
2026-04-26 04:28 20.78227 111.31805 39434 ft 428 kts 253°
2026-04-26 04:28 20.77210 111.28824 38831 ft 427 kts 253°
2026-04-26 04:28 20.76200 111.25836 38049 ft 428 kts 253°
2026-04-26 04:29 20.75533 111.23853 37542 ft 429 kts 253°
2026-04-26 04:29 20.74523 111.20844 36739 ft 431 kts 254°
2026-04-26 04:29 20.73508 111.17819 35921 ft 434 kts 254°
2026-04-26 04:29 20.72486 111.14776 35001 ft 439 kts 254°
2026-04-26 04:30 20.71447 111.11681 34000 ft 446 kts 254°
2026-04-26 04:30 20.70393 111.08546 32856 ft 452 kts 253°
2026-04-26 04:30 20.69324 111.05375 31895 ft 455 kts 253°
2026-04-26 04:30 20.68252 111.02203 31138 ft 453 kts 253°
2026-04-26 04:31 20.67185 110.99043 30377 ft 451 kts 253°
2026-04-26 04:31 20.66114 110.95905 29538 ft 445 kts 251°
2026-04-26 04:31 20.64627 110.93009 28688 ft 448 kts 236°
2026-04-26 04:31 20.62501 110.90574 27912 ft 449 kts 225°
2026-04-26 04:32 20.59985 110.88600 27167 ft 450 kts 213°
2026-04-26 04:32 20.57129 110.87231 26445 ft 450 kts 205°
2026-04-26 04:32 20.54238 110.85985 25708 ft 446 kts 206°
2026-04-26 04:32 20.51395 110.84682 24978 ft 443 kts 206°
2026-04-26 04:33 20.48465 110.83670 24232 ft 445 kts 192°
2026-04-26 04:33 20.45381 110.83391 23544 ft 444 kts 185°
2026-04-26 04:33 20.42301 110.83261 22707 ft 442 kts 184°
2026-04-26 04:33 20.39241 110.83112 21935 ft 439 kts 185°
2026-04-26 04:34 20.36206 110.82921 21202 ft 435 kts 185°
2026-04-26 04:34 20.33200 110.82701 20512 ft 430 kts 185°
2026-04-26 04:34 20.30230 110.82468 19841 ft 426 kts 185°
2026-04-26 04:34 20.27283 110.82235 19160 ft 423 kts 185°
2026-04-26 04:35 20.24364 110.81991 18483 ft 414 kts 188°
2026-04-26 04:35 20.21637 110.81177 17761 ft 407 kts 208°
2026-04-26 04:35 20.19370 110.79433 17107 ft 401 kts 226°
2026-04-26 04:35 20.17663 110.77111 16412 ft 398 kts 239°
2026-04-26 04:36 20.16522 110.74449 15730 ft 394 kts 254°
2026-04-26 04:36 20.15962 110.71607 15096 ft 391 kts 259°
2026-04-26 04:36 20.15441 110.68769 14438 ft 390 kts 258°
2026-04-26 04:36 20.14882 110.65946 13779 ft 390 kts 258°
2026-04-26 04:37 20.14320 110.63131 13063 ft 388 kts 257°
2026-04-26 04:37 20.13759 110.60331 12402 ft 386 kts 257°
2026-04-26 04:37 20.13201 110.57549 11752 ft 383 kts 257°
2026-04-26 04:37 20.12646 110.54787 11120 ft 380 kts 257°
2026-04-26 04:38 20.12165 110.52397 10719 ft 375 kts 257°
2026-04-26 04:38 20.11639 110.49781 10556 ft 359 kts 257°
2026-04-26 04:38 20.11128 110.47242 10394 ft 345 kts 257°
2026-04-26 04:38 20.10635 110.44797 10241 ft 331 kts 257°
2026-04-26 04:39 20.10161 110.42445 10111 ft 319 kts 257°
2026-04-26 04:39 20.09712 110.40222 9924 ft 309 kts 257°
2026-04-26 04:39 20.09374 110.38551 9748 ft 298 kts 256°
2026-04-26 04:40 20.08953 110.36485 9298 ft 275 kts 257°
2026-04-26 04:40 20.08561 110.34572 8926 ft 255 kts 256°
2026-04-26 04:40 20.08193 110.32783 8591 ft 243 kts 256°
2026-04-26 04:40 20.07834 110.31038 8305 ft 244 kts 256°
2026-04-26 04:41 20.07457 110.29216 8015 ft 263 kts 257°
2026-04-26 04:41 20.07044 110.27213 7659 ft 288 kts 257°
2026-04-26 04:41 20.06614 110.25121 7394 ft 288 kts 257°
2026-04-26 04:41 20.06193 110.23070 7203 ft 280 kts 257°
2026-04-26 04:42 20.05783 110.21071 6970 ft 275 kts 257°
2026-04-26 04:42 20.05382 110.19125 6891 ft 264 kts 257°
2026-04-26 04:42 20.04998 110.17261 6819 ft 253 kts 256°
2026-04-26 04:42 20.04464 110.15553 6679 ft 238 kts 236°
2026-04-26 04:43 20.03293 110.14374 6333 ft 230 kts 208°
2026-04-26 04:43 20.01827 110.13824 5963 ft 221 kts 189°
2026-04-26 04:43 20.00291 110.13733 5724 ft 225 kts 181°
2026-04-26 04:43 19.98706 110.13744 5454 ft 228 kts 180°
2026-04-26 04:44 19.97151 110.13900 5178 ft 223 kts 161°
2026-04-26 04:44 19.95908 110.14834 4925 ft 221 kts 126°
2026-04-26 04:44 19.95395 110.16344 4695 ft 219 kts 97°
2026-04-26 04:44 19.95333 110.17966 4453 ft 220 kts 92°
2026-04-26 04:45 19.95309 110.19594 4212 ft 221 kts 91°
2026-04-26 04:45 19.95307 110.21226 3960 ft 220 kts 91°
2026-04-26 04:45 19.95311 110.22844 3749 ft 217 kts 90°
2026-04-26 04:45 19.95317 110.24408 3631 ft 206 kts 91°
2026-04-26 04:46 19.95322 110.25888 3417 ft 196 kts 91°
2026-04-26 04:46 19.95326 110.27310 3161 ft 190 kts 91°
2026-04-26 04:46 19.95329 110.28691 2911 ft 184 kts 92°
2026-04-26 04:46 19.95332 110.30025 2677 ft 178 kts 91°
2026-04-26 04:47 19.95336 110.31338 2452 ft 175 kts 91°
2026-04-26 04:47 19.95340 110.32615 2218 ft 170 kts 90°
2026-04-26 04:47 19.95343 110.33887 2022 ft 174 kts 91°
2026-04-26 04:47 19.95346 110.35161 1789 ft 172 kts 91°
2026-04-26 04:48 19.95352 110.37686 1362 ft 172 kts 90°
2026-04-26 04:48 19.95356 110.38925 1141 ft 162 kts 91°
2026-04-26 04:48 19.95359 110.40102 923 ft 157 kts 89°
2026-04-26 04:49 19.95363 110.41253 740 ft 150 kts 89°
2026-04-26 04:49 19.95365 110.42311 544 ft 136 kts 89°
2026-04-26 04:49 19.95362 110.43294 402 ft 133 kts 88°
2026-04-26 04:49 19.95372 110.44289 212 ft 137 kts 90°
2026-04-26 04:50 19.95375 110.45272 76 ft 129 kts 89°
2026-04-26 04:50 19.95377 110.46081 62 ft 61 kts 90°
2026-04-26 04:50 19.95376 110.46457 61 ft 29 kts 97°
2026-04-26 04:50 19.95306 110.46653 55 ft 29 kts 115°
2026-04-26 04:51 19.95185 110.46792 60 ft 17 kts 173°
2026-04-26 04:51 19.95122 110.46708 56 ft 17 kts 268°
2026-04-26 04:51 19.95122 110.46584 57 ft 17 kts 270°
2026-04-26 04:51 19.95122 110.46460 56 ft 17 kts 269°
2026-04-26 04:52 19.95121 110.46336 60 ft 17 kts 269°
2026-04-26 04:52 19.95069 110.46230 55 ft 17 kts 256°
2026-04-26 04:52 19.95064 110.46152 54 ft 6 kts 258°
2026-04-26 04:52 19.95036 110.46121 58 ft 6 kts 201°
2026-04-26 04:53 19.95009 110.46110 57 ft 0 kts 202°
2026-04-26 04:53 19.95007 110.46109 55 ft 5 kts 202°
2026-04-26 04:54 19.95003 110.46107 56 ft 0 kts 202°